Location: D�nning
(49.2479°N, 12.8491°E)
Time: 08:59:25
(UTC+00:00)

USA 238 - Pass Details

Date: 18 September 2020
Orbit: 1006 x 1206 km, 63.4° (Epoch: 15 October)

Event Time Altitude Azimuth Distance (km) Brightness Sun altitude
Rises 17:41:27 0° 314° (NW) 3,901 7.7 -5.2°
Reaches altitude 10° 17:44:14 10° 321° (NW) 2,972 6.8 -5.7°
Maximum altitude 17:51:00 45° 33° (NNE) 1,518 4.4 -6.7°
Drops below altitude 10° 17:58:04 10° 105° (ESE) 3,095 5.4 -7.9°
Enters shadow 17:58:17 - 106° (ESE) 3,170 5.5 -7.9°
